TimeCDT,TemperatureF,Dew PointF,Humidity,Sea Level PressureIn,VisibilityMPH,Wind Direction,Wind SpeedMPH,Gust SpeedMPH,PrecipitationIn,Events,Conditions,WindDirDegrees,DateUTC
12:53 AM,71.1,66.9,87,30.03,8.0,South,3.5,-,N/A,,Clear,170,2013-08-22 05:53:00
1:53 AM,72.0,66.9,84,30.04,9.0,South,5.8,-,N/A,,Clear,190,2013-08-22 06:53:00
2:53 AM,72.0,66.9,84,30.03,9.0,SSW,4.6,-,N/A,,Clear,200,2013-08-22 07:53:00
3:53 AM,70.0,66.9,90,30.03,8.0,South,4.6,-,N/A,,Clear,180,2013-08-22 08:53:00
4:53 AM,70.0,66.0,87,30.04,8.0,South,3.5,-,N/A,,Clear,190,2013-08-22 09:53:00
5:53 AM,69.1,64.9,87,30.04,8.0,SSE,4.6,-,N/A,,Clear,160,2013-08-22 10:53:00
6:53 AM,69.1,64.9,87,30.07,7.0,South,4.6,-,N/A,,Clear,180,2013-08-22 11:53:00
7:53 AM,71.1,66.0,84,30.09,6.0,South,3.5,-,N/A,,Haze,180,2013-08-22 12:53:00
8:53 AM,75.0,68.0,79,30.07,8.0,SSW,3.5,-,N/A,,Clear,210,2013-08-22 13:53:00
9:53 AM,78.1,66.9,68,30.07,9.0,SSW,5.8,-,N/A,,Clear,210,2013-08-22 14:53:00
10:53 AM,80.1,66.9,64,30.06,10.0,SSW,5.8,-,N/A,,Clear,210,2013-08-22 15:53:00
11:53 AM,81.0,66.0,60,30.06,10.0,Variable,5.8,-,N/A,,Clear,0,2013-08-22 16:53:00
12:53 PM,84.9,68.0,57,30.05,10.0,South,4.6,-,N/A,,Clear,180,2013-08-22 17:53:00
1:53 PM,84.9,68.0,57,30.04,10.0,South,6.9,-,N/A,,Clear,180,2013-08-22 18:53:00
2:53 PM,86.0,68.0,55,30.04,10.0,South,6.9,-,N/A,,Clear,170,2013-08-22 19:53:00
3:53 PM,87.1,66.0,49,30.02,10.0,South,3.5,-,N/A,,Clear,190,2013-08-22 20:53:00
4:53 PM,87.1,66.9,51,30.01,10.0,SSW,5.8,-,N/A,,Clear,210,2013-08-22 21:53:00
5:53 PM,87.1,68.0,53,30.01,10.0,South,6.9,-,N/A,,Clear,190,2013-08-22 22:53:00
6:53 PM,84.9,68.0,57,30.00,10.0,SSW,3.5,-,N/A,,Clear,200,2013-08-22 23:53:00
7:53 PM,82.9,69.1,63,30.00,10.0,Calm,Calm,-,N/A,,Clear,0,2013-08-23 00:53:00
8:53 PM,79.0,69.1,72,30.01,10.0,Calm,Calm,-,N/A,,Clear,0,2013-08-23 01:53:00
9:53 PM,77.0,70.0,79,30.02,10.0,SSE,3.5,-,N/A,,Clear,160,2013-08-23 02:53:00
10:53 PM,75.9,70.0,82,30.03,10.0,SSE,3.5,-,N/A,,Clear,150,2013-08-23 03:53:00
11:53 PM,73.9,70.0,87,30.03,10.0,SSE,3.5,-,N/A,,Clear,160,2013-08-23 04:53:00